www.pogodaiklimat.ru

Погода и климат >> Архив погоды >> Индия >> Раджастхан >> Джайсалмер


ПОГОДА в Джайсалмере

  • Прогноз погоды в Джайсалмере
  • Монитор погоды в Джайсалмере

АРХИВ ПОГОДЫ в Джайсалмере

Время (UTC), дата Ветер
(напр.,м/с)
 
Видим.   Явления Облачность Т
(С)
Тd
(С)
f
(%)
Тe
(С)
Тes
(С)
Комфортность P
(гПа)
Po
(гПа)
Тmin
(С)
Tmax
(С)
R
(мм)
R24
(мм)
S
(см)
12 16.07 ЮЗ 7 1000 м пыльный позёмок 9/8 750 м
[Sc Ac trans]
+36.6 +21.4 41 +44 +44 опасность
перегрева
993.9 968.9 +37.5
15 16.07 ЮЗ 6 1000 м пыльный позёмок 3/0
[Ac trans]
+34.2 +21.6 48 +42 +42 опасность
перегрева
995.6 970.4
18 16.07 ЮЗ 7 2000 м пыльный позёмок 3/0
[Ac trans]
+31.4 +23.0 61 +42 +42 опасность
перегрева
998.1 972.6
21 16.07 ЮЗ 7 2000 м пыльный позёмок 5/0
[Ac trans]
+29.6 +22.9 67 +39 +39 очень
душно
997.2 971.5
00 17.07 ЮЗ 6 2000 м пыльный позёмок 8/4 900 м
[Sc Ac trans]
+28.2 +22.9 73 +38 +38 очень
душно
997.1 971.3
03 17.07 ЮЗ 6 2000 м пыль 8/5 900 м
[Sc Ac trans]
+29.4 +23.6 71 +40 +41 очень
душно
998.6 972.9 +27.5 +37.5
06 17.07 ЮЗ 6 2000 м пыль 8/4 900 м
[Sc Cs]
+33.4 +22.7 54 +43 +48 опасность
перегрева
998.3 972.9
09 17.07 ЮЗ 5 2000 м пыль 3/3 900 м
[Sc]
+37.4 +21.7 40 +45 +51 опасность
перегрева
996.4 971.4
12 17.07 Ю 5 2000 м пыль 6/6 900 м
[Sc]
+37.4 +21.3 39 +44 +45 опасность
перегрева
994.9 969.9 +38.5
15 17.07 ЮЗ 5 2000 м пыль ясно +35.0 +21.9 47 +44 +44 опасность
перегрева
995.7 970.5
18 17.07 ЮЗ 6 2000 м пыль ясно +33.4 +22.3 52 +42 +42 опасность
перегрева
997.5 972.1
21 17.07 ЮЗ 5 2000 м пыль ясно +30.4 +22.8 64 +40 +40 очень
душно
998.0 972.4
00 18.07 ЮЗ 5 2000 м пыль ясно +28.6 +22.4 69 +37 +37 очень
душно
998.2 972.4
03 18.07 ЮЗ 5 2000 м пыль ясно +29.4 +22.3 66 +38 +42 очень
душно
998.4 972.7 +27.5 +38.5
06 18.07 ЮЗ 5 2000 м пыль ясно +34.0 +22.0 50 +43 +53 опасность
перегрева
997.9 972.6
09 18.07 Ю 4 2000 м пыль 3/3 900 м
[Sc]
+38.0 +21.0 37 +44 +53 опасность
перегрева
995.9 970.9
12 18.07 ЮЗ 4 2000 м пыль 1/1 900 м
[Sc]
+38.4 +20.0 34 +44 +46 опасность
перегрева
994.1 969.2 +38.9
15 18.07 ЮЗ 3 2000 м пыль ясно +35.6 +20.8 42 +42 +42 опасность
перегрева
995.4 970.3
18 18.07 ЮЗ 3 2000 м пыль ясно +34.0 +21.3 48 +42 +42 опасность
перегрева
996.7 971.4
21 18.07 ЮЗ 5 2000 м пыль ясно +31.0 +23.8 66 +43 +43 опасность
перегрева
997.1 971.6
00 19.07 ЮЗ 5 2000 м пыль 8/3 900 м
[Sc Cs]
+29.2 +22.8 68 +39 +39 очень
душно
997.7 972.0
03 19.07 ЮЗ 4 4000 м 3/0
[Ac trans]
+30.2 +22.3 63 +39 +43 очень
душно
998.7 973.0 +28.6 +38.9
06 19.07 ЮЗ 3 4000 м 1/0 900 м
[Ac trans]
+35.6 +21.2 43 +43 +58 опасность
перегрева
998.8 973.6
09 19.07 Ю 2 4000 м 4/4 1050 м
[Sc]
+39.0 +20.5 34 +45 +56 опасность
перегрева
996.6 971.7
12 19.07 ЮЗ 2 4000 м 5/5 1050 м
[Sc]
+39.4 +18.7 30 +43 +45 опасность
перегрева
994.5 969.7 +40.2
15 19.07 Ю 1 4000 м 1/1 900 м
[Sc]
+37.0 +19.7 37 +43 +43 опасность
перегрева
995.9 970.9
18 19.07 СЗ 1 4000 м 6/6 900 м
[Sc]
+35.0 +21.9 47 +44 +44 опасность
перегрева
998.3 973.0
21 19.07 З 1 4000 м ясно +33.4 +21.6 50 +41 +41 опасность
перегрева
997.7 972.3
00 20.07 З 2 4000 м ясно +31.6 +21.9 56 +40 +40 очень
душно
997.5 972.0
03 20.07 СЗ 3 4000 м ясно +32.4 +21.8 54 +41 +46 опасность
перегрева
999.9 974.4 +30.6 +40.2
06 20.07 ЮЗ 2 4000 м ясно +37.6 +20.5 37 +44 +63 опасность
перегрева
999.0 973.9
09 20.07 СЗ 2 4000 м 6/6 900 м
[Sc]
+41.2 +20.0 30 +47 +54 опасность
перегрева
997.1 972.4
12 20.07 СЗ 3 4000 м 5/5 900 м
[Sc]
+41.4 +19.1 28 +46 +48 опасность
перегрева
994.2 969.6 +42.0
15 20.07 Ю 3 2000 м гроза без осадков 6/6 900 м
[Cb cap]
+33.6 +22.6 53 +43 +43 опасность
перегрева
996.8 971.5
18 20.07 ЮЗ 2 4000 м ясно +33.6 +21.2 48 +41 +41 опасность
перегрева
997.6 972.3
21 20.07 ЮЗ 2 4000 м ясно +32.2 +21.9 55 +41 +41 опасность
перегрева
996.9 971.5
00 21.07 ЮЗ 2 4000 м 1/1 900 м
[Sc]
+30.4 +22.5 63 +40 +40 очень
душно
996.9 971.3
03 21.07 ЮЗ 2 4000 м ясно +32.4 +22.8 57 +42 +49 опасность
перегрева
998.6 973.1 +30.1 +42.0
06 21.07 С 1 4000 м ясно +38.2 +21.6 38 +45 +69 опасность
перегрева
998.0 973.0
09 21.07 ЮЗ 2 4000 м 6/6 1050 м
[Cu Sc]
+41.2 +19.2 28 +45 +53 опасность
перегрева
994.7 970.0
12 21.07 СВ 3 4000 м в посл. час гроза {дождь} 8/4 1050 м
[Sc Ac trans]
+30.0 +26.1 80 +45 +47 опасность
перегрева
994.8 969.2 +42.8 8
15 21.07 штиль 0 4000 м 6/3 1050 м
[Sc Ac trans Ci fib]
+31.2 +25.3 71 +45 +45 опасность
перегрева
995.6 970.1 8
18 21.07 Ю 1 4000 м 5/0
[Ci fib]
+31.4 +22.7 60 +41 +41 опасность
перегрева
996.8 971.3 8
21 21.07 ЮЗ 1 4000 м 3/3 1050 м
[Sc]
+30.4 +25.0 73 +44 +44 опасность
перегрева
996.2 970.6 8
00 22.07 ЮЗ 1 2000 м мгла 4/0
[Ac trans Ci fib]
+29.4 +24.5 75 +42 +42 опасность
перегрева
996.6 970.9 8
03 22.07 Ю 1 2000 м мгла 5/0
[Ci fib]
+30.8 +25.4 73 +45 +51 опасность
перегрева
997.8 972.2 +28.7 +42.8 8
06 22.07 ЮЗ 1 2000 м мгла 1/0
[Ci fib]
+35.8 +23.5 49 +46 +71 опасность
перегрева
996.6 971.5
09 22.07 С 1 2000 м пыль 5/4 900 м
[Sc Ac trans]
+40.0 +21.8 35 +47 +60 опасность
перегрева
994.4 969.6
12 22.07 В 1 2000 м гроза без осадков 9/8 900 м
[Cb cap Ac trans]
+35.6 +23.9 51 +47 +48 опасность
перегрева
993.0 967.9 +41.2 0.5
15 22.07 Ю 4 2000 м мгла {гроза} 4/4 900 м
[Sc]
+35.2 +21.1 44 +42 +42 опасность
перегрева
994.2 969.1 0.5
18 22.07 2000 м зарница {гроза} н/о +31.0 +23.2 63 0.5
21 22.07 З 2 2000 м мгла ясно +31.4 +23.0 61 +42 +42 опасность
перегрева
995.6 970.1 0.5
00 23.07 ЮЗ 1 2000 м мгла 5/1 900 м
[Sc Ac trans]
+30.6 +24.3 69 +43 +43 опасность
перегрева
995.5 970.0 0.5
03 23.07 Ю 2 2000 м мгла 3/0
[Ac trans]
+32.4 +23.5 59 +43 +48 опасность
перегрева
996.9 971.5 +30.3 +41.2 0.5
06 23.07 Ю 2 4000 м 4/0
[Ac trans]
+38.2 +22.7 41 +47 +62 опасность
перегрева
996.3 971.4
09 23.07 Ю 2 4000 м 8/5 900 м
[Cu Sc Ci fib]
+40.2 +21.3 34 +47 +56 опасность
перегрева
994.4 969.7

 

Местоположение метеостанции Джайсалмер (Раджастхан, Индия): широта 26.90 долгота 70.92 высота над уровнем моря 231 м.

В архиве по умолчанию представлена погода в Джайсалмере за последнюю неделю. Архивные данные за месяц целиком и за предыдущие месяцы, начиная с января 2011 года, Вы можете получить, выбрав интересующий диапазон дат из раскрывающегося списка и нажав кнопку "Ввод!".


*Определитесь, кто Вы:
робот инопланетянин человек

Внимание! Время в таблицах - всемирное. Для получения местного времени необходимо прибавить поправку, которая равна 5.5 ч.

Смотрите также архив погоды в соседних городах и на ближайших метеорологических станциях:

Погода в Бармере (Раджастхан, Индия) (136 км)
Погода в Рахим Яр Хан (Пакистан) (180 км)
Погода в Чоре (Пакистан) (191 км)
Погода в Ханпуре (Пакистан) (196 км)
Погода в Рохри (Пакистан) (217 км)
Погода в Джодхпуре (Раджастхан, Индия) (219 км)
Погода в Суккуре (Пакистан) (231 км)
Погода в Мир Пур Кхас (Пакистан) (249 км)
Погода в Навабшахе (Пакистан) (264 км)
Погода в Биканере (Раджастхан, Индия) (265 км)

Пояснения к столбцам:

Ветер - указаны скорость ветра в м/с - средняя за 10 мин, порывы в срок и между сроками (в фигурных скобках) и направление, откуда дует ветер: С - северный, СВ - северо-восточный, В - восточный, ЮВ - юго-восточный, Ю - южный, ЮЗ - юго-западный, З - западный, СЗ - северо-западный.
Видимость - горизонтальная дальность видимости в метрах или километрах. При видимости от 1 до 10 км при отсутствии осадков обычно наблюдается дымка, при ухудшении видимости до 1 км и менее - туман. В сухую погоду видимость может ухудшаться дымом, пылью или мглою.
Явления - указаны атмосферные явления, наблюдавшиеся в срок или в последний час перед сроком; фигурными скобками обозначены явления, наблюдавшиеся между сроками (за 1-3 часа до срока); квадратными скобками обозначены град или гололедные отложения с указанием их диаметра в мм.
Облачность - указаны через наклонную черту общая и нижняя облачность в баллах и высота нижней границы облаков в метрах; квадратными скобками обозначены формы облаков: Ci - перистые, Cs - перисто-слоистые, Cc - перисто-кучевые, Ac - высококучевые, As - высокослоистые, Sc - слоисто-кучевые, Ns - слоисто-дождевые, Cu - кучевые, Cb - кучево-дождевые. Подробнее классификацию облаков см. в Атласе облаков (PDF).
T - Температура воздуха - температура, измеренная на высоте 2 м над землей.
Td - Температура точки росы - температура, при понижении до которой содержащийся в воздухе водяной пар достигнет насыщения.
f - Относительная влажность воздуха - влажноcть воздуха, измеренная на высоте 2 м над землей.
Te - Эффективная температура - температура, которую ощущает одетый по сезону человек в тени. Характеристика душности погоды. При расчете учитывается влияние влажности воздуха и скорости ветра на теплоощущения человека.
Tes - Эффективная температура на солнце - температура, которую ощущает человек, с поправкой на солнечный нагрев. Характеристика знойности погоды. Зависит от высоты солнца над горизонтом, облачности и скорости ветра. Ночью, в пасмурную погоду, а также при ветре 12 м/с и более поправка равна нулю.
P - Атмосферное давление - приведенное к уровню моря атмосферное давление.
Po - Атмосферное давление - измеренное на уровне метеостанции атмосферное давление.
Tmin - Минимальная температура - минимум температуры воздуха на высоте 2 м над землей.
Tmax - Максимальная температура - максимум температуры воздуха на высоте 2 м над землей.
R - Количество осадков - Количество выпавших осадков за период времени, мм. При наведении курсора мыши на число - период времени, за который выпало указанное количество осадков.
R24 - Количество осадков - Количество выпавших осадков за 24 часа, мм.
S - Снежный покров - Высота снежного покрова, см. При наведении курсора мыши на число - состояние снежного покрова и степень покрытия местности в баллах.